| time (UTC) | temp C | wind direction | speed KPH | gust KPH | rain 1hr cm | rain 24hr cm | rain mn cm | humidity % | barometer mb |
| 20260507204707 | 11 | 326 | 8.0 | 9.7 | 0.00 | 0.00 | 0.00 | 55 | 1014.3 |
| 20260507204207 | 10 | 322 | 9.7 | 11.3 | 0.00 | 0.00 | 0.00 | 54 | 1014.3 |
| 20260507203207 | 10 | 328 | 6.4 | 9.7 | 0.00 | 0.00 | 0.00 | 53 | 1014.2 |
| 20260507202707 | 10 | 326 | 6.4 | 8.0 | 0.00 | 0.00 | 0.00 | 52 | 1014.2 |
| 20260507202207 | 10 | 326 | 4.8 | 6.4 | 0.00 | 0.00 | 0.00 | 51 | 1014.1 |
| 20260507201707 | 10 | 326 | 6.4 | 8.0 | 0.00 | 0.00 | 0.00 | 51 | 1014.0 |
| 20260507200707 | 11 | 326 | 6.4 | 6.4 | 0.00 | 0.00 | 0.00 | 50 | 1013.9 |
| 20260507195207 | 11 | 326 | 6.4 | 8.0 | 0.00 | 0.00 | 0.00 | 48 | 1013.6 |
| 20260507194707 | 11 | 317 | 9.7 | 11.3 | 0.00 | 0.00 | 0.00 | 48 | 1013.5 |
| 20260507194208 | 11 | 311 | 11.3 | 14.5 | 0.00 | 0.00 | 0.00 | 48 | 1013.4 |
| 20260507193707 | 11 | 317 | 9.7 | 16.1 | 0.00 | 0.00 | 0.00 | 48 | 1013.3 |
| 20260507193207 | 11 | 312 | 12.9 | 16.1 | 0.00 | 0.00 | 0.00 | 47 | 1013.3 |
| 20260507192707 | 11 | 308 | 9.7 | 12.9 | 0.00 | 0.00 | 0.00 | 47 | 1013.3 |
| 20260507192207 | 11 | 293 | 8.0 | 9.7 | 0.00 | 0.00 | 0.00 | 46 | 1013.2 |
| 20260507191707 | 11 | 293 | 8.0 | 9.7 | 0.00 | 0.00 | 0.00 | 46 | 1013.1 |
| 20260507191208 | 11 | 292 | 8.0 | 8.0 | 0.00 | 0.00 | 0.00 | 46 | 1013.1 |
| 20260507190707 | 11 | 292 | 8.0 | 9.7 | 0.00 | 0.00 | 0.00 | 46 | 1013.1 |
| 20260507190207 | 11 | 291 | 6.4 | 8.0 | 0.00 | 0.00 | 0.00 | 46 | 1013.0 |
| 20260507185707 | 11 | 288 | 8.0 | 9.7 | 0.00 | 0.00 | 0.00 | 45 | 1013.0 |
| 20260507185207 | 11 | 287 | 6.4 | 6.4 | 0.00 | 0.00 | 0.00 | 45 | 1012.9 |
| 20260507184707 | 11 | 287 | 6.4 | 6.4 | 0.00 | 0.00 | 0.00 | 45 | 1012.9 |
| 20260507184207 | 12 | 287 | 6.4 | 6.4 | 0.00 | 0.00 | 0.00 | 45 | 1012.8 |
| 20260507183707 | 12 | 287 | 3.2 | 3.2 | 0.00 | 0.00 | 0.00 | 45 | 1012.7 |
| 20260507183207 | 12 | 304 | 1.6 | 3.2 | 0.00 | 0.00 | 0.00 | 44 | 1012.6 |
| 20260507182707 | 12 | 304 | 0.0 | 0.0 | 0.00 | 0.00 | 0.00 | 44 | 1012.4 |
| 20260507182207 | 13 | 304 | 0.0 | 0.0 | 0.00 | 0.00 | 0.00 | 43 | 1012.3 |
| 20260507181707 | 13 | 304 | 0.0 | 1.6 | 0.00 | 0.00 | 0.00 | 42 | 1012.2 |
| 20260507181207 | 13 | 304 | 3.2 | 3.2 | 0.00 | 0.00 | 0.00 | 42 | 1012.1 |
| 20260507180709 | 13 | 304 | 3.2 | 4.8 | 0.00 | 0.00 | 0.00 | 42 | 1012.1 |
| 20260507180207 | 14 | 304 | 4.8 | 4.8 | 0.00 | 0.00 | 0.00 | 42 | 1012.0 |
| 20260507175707 | 14 | 304 | 6.4 | 6.4 | 0.00 | 0.00 | 0.00 | 42 | 1012.0 |
| 20260507175207 | 14 | 304 | 4.8 | 4.8 | 0.00 | 0.00 | 0.00 | 42 | 1012.0 |
| 20260507174707 | 14 | 304 | 4.8 | 4.8 | 0.00 | 0.00 | 0.00 | 42 | 1011.9 |
| 20260507174207 | 15 | 304 | 6.4 | 6.4 | 0.00 | 0.00 | 0.00 | 42 | 1011.9 |
| 20260507173707 | 15 | 303 | 6.4 | 6.4 | 0.00 | 0.00 | 0.00 | 41 | 1011.9 |
| 20260507173207 | 15 | 303 | 8.0 | 9.7 | 0.00 | 0.00 | 0.00 | 41 | 1011.9 |
| 20260507172208 | 15 | 287 | 8.0 | 9.7 | 0.00 | 0.00 | 0.00 | 40 | 1011.8 |
| 20260507171207 | 16 | 297 | 11.3 | 16.1 | 0.00 | 0.00 | 0.00 | 40 | 1011.7 |
| 20260507170707 | 16 | 310 | 11.3 | 12.9 | 0.00 | 0.00 | 0.00 | 40 | 1011.7 |
| 20260507170207 | 16 | 313 | 12.9 | 16.1 | 0.00 | 0.00 | 0.00 | 40 | 1011.6 |
| 20260507165707 | 16 | 301 | 16.1 | 16.1 | 0.00 | 0.00 | 0.00 | 39 | 1011.5 |
| 20260507165208 | 16 | 302 | 12.9 | 16.1 | 0.00 | 0.00 | 0.00 | 39 | 1011.5 |
| 20260507163707 | 16 | 287 | 12.9 | 14.5 | 0.00 | 0.00 | 0.00 | 40 | 1011.4 |
| 20260507163207 | 16 | 309 | 9.7 | 11.3 | 0.00 | 0.00 | 0.00 | 40 | 1011.4 |
| 20260507162707 | 16 | 292 | 11.3 | 12.9 | 0.00 | 0.00 | 0.00 | 40 | 1011.4 |
| 20260507160207 | 17 | 308 | 11.3 | 14.5 | 0.00 | 0.00 | 0.00 | 38 | 1011.3 |
| 20260507155707 | 17 | 301 | 11.3 | 14.5 | 0.00 | 0.00 | 0.00 | 38 | 1011.3 |
| 20260507155207 | 17 | 289 | 9.7 | 16.1 | 0.00 | 0.00 | 0.00 | 38 | 1011.3 |
| 20260507154707 | 17 | 276 | 12.9 | 14.5 | 0.00 | 0.00 | 0.00 | 37 | 1011.3 |
| 20260507154207 | 18 | 288 | 12.9 | 20.9 | 0.00 | 0.00 | 0.00 | 36 | 1011.2 |
| 20260507152212 | 19 | 249 | 9.7 | 12.9 | 0.00 | 0.00 | 0.00 | 34 | 1011.1 |
| 20260507151707 | 19 | 306 | 8.0 | 11.3 | 0.00 | 0.00 | 0.00 | 35 | 1011.1 |
| 20260507150707 | 20 | 299 | 9.7 | 12.9 | 0.00 | 0.00 | 0.00 | 36 | 1011.1 |
| 20260507144707 | 18 | 284 | 9.7 | 11.3 | 0.00 | 0.00 | 0.00 | 36 | 1011.1 |
| 20260507144208 | 18 | 312 | 8.0 | 11.3 | 0.00 | 0.00 | 0.00 | 36 | 1011.1 |
| 20260507143708 | 18 | 290 | 11.3 | 12.9 | 0.00 | 0.00 | 0.00 | 36 | 1011.1 |
| 20260507142207 | 16 | 275 | 14.5 | 17.7 | 0.00 | 0.00 | 0.00 | 38 | 1011.1 |
| 20260507141707 | 16 | 295 | 14.5 | 17.7 | 0.00 | 0.00 | 0.00 | 39 | 1011.2 |
| 20260507141207 | 17 | 302 | 12.9 | 14.5 | 0.00 | 0.00 | 0.00 | 41 | 1011.3 |
| 20260507140707 | 17 | 276 | 14.5 | 17.7 | 0.00 | 0.00 | 0.00 | 38 | 1011.3 |
| 20260507135707 | 18 | 289 | 16.1 | 20.9 | 0.00 | 0.00 | 0.00 | 36 | 1011.2 |
| 20260507135207 | 20 | 269 | 16.1 | 20.9 | 0.00 | 0.00 | 0.00 | 35 | 1011.1 |
| 20260507134707 | 20 | 302 | 8.0 | 9.7 | 0.00 | 0.00 | 0.00 | 35 | 1011.1 |
| 20260507134207 | 20 | 299 | 11.3 | 14.5 | 0.00 | 0.00 | 0.00 | 34 | 1011.1 |
| 20260507133707 | 20 | 306 | 9.7 | 12.9 | 0.00 | 0.00 | 0.00 | 34 | 1011.1 |
| 20260507132707 | 18 | 292 | 14.5 | 14.5 | 0.00 | 0.00 | 0.00 | 34 | 1011.1 |
| 20260507132207 | 18 | 298 | 11.3 | 14.5 | 0.00 | 0.00 | 0.00 | 35 | 1011.1 |
| 20260507131707 | 18 | 290 | 9.7 | 12.9 | 0.00 | 0.00 | 0.00 | 37 | 1011.2 |
| 20260507131207 | 18 | 303 | 11.3 | 14.5 | 0.00 | 0.00 | 0.00 | 36 | 1011.2 |
| 20260507125707 | 18 | 279 | 9.7 | 12.9 | 0.00 | 0.00 | 0.00 | 35 | 1011.2 |
| 20260507125207 | 19 | 277 | 9.7 | 11.3 | 0.00 | 0.00 | 0.00 | 34 | 1011.1 |
| 20260507123707 | 18 | 240 | 4.8 | 11.3 | 0.00 | 0.00 | 0.00 | 34 | 1011.1 |
| 20260507123207 | 18 | 234 | 11.3 | 14.5 | 0.00 | 0.00 | 0.00 | 34 | 1011.2 |
| 20260507122207 | 19 | 210 | 14.5 | 17.7 | 0.00 | 0.00 | 0.00 | 33 | 1011.3 |
| 20260507121707 | 19 | 273 | 9.7 | 14.5 | 0.00 | 0.00 | 0.00 | 34 | 1011.3 |
| 20260507120707 | 19 | 271 | 11.3 | 17.7 | 0.00 | 0.00 | 0.00 | 34 | 1011.2 |
| 20260507120207 | 20 | 277 | 6.4 | 11.3 | 0.00 | 0.00 | 0.00 | 35 | 1011.2 |
| 20260507115207 | 19 | 279 | 11.3 | 19.3 | 0.00 | 0.00 | 0.00 | 34 | 1011.1 |
| 20260507114707 | 19 | 281 | 12.9 | 17.7 | 0.00 | 0.00 | 0.00 | 34 | 1011.2 |
| 20260507113707 | 20 | 292 | 12.9 | 16.1 | 0.00 | 0.00 | 0.00 | 35 | 1011.2 |
| 20260507113207 | 19 | 231 | 16.1 | 19.3 | 0.00 | 0.00 | 0.00 | 33 | 1011.1 |
| 20260507112707 | 19 | 180 | 12.9 | 20.9 | 0.00 | 0.00 | 0.00 | 35 | 1011.2 |
| 20260507112207 | 20 | 196 | 8.0 | 16.1 | 0.00 | 0.00 | 0.00 | 36 | 1011.3 |
| 20260507111707 | 20 | 274 | 11.3 | 14.5 | 0.00 | 0.00 | 0.00 | 37 | 1011.3 |
| 20260507110707 | 20 | 265 | 6.4 | 11.3 | 0.00 | 0.00 | 0.00 | 37 | 1011.3 |
| 20260507104707 | 21 | 222 | 9.7 | 12.9 | 0.00 | 0.00 | 0.00 | 36 | 1011.3 |
| 20260507104207 | 21 | 215 | 20.9 | 25.7 | 0.00 | 0.00 | 0.00 | 34 | 1011.2 |
| 20260507103707 | 21 | 234 | 16.1 | 20.9 | 0.00 | 0.00 | 0.00 | 33 | 1011.3 |
| 20260507103207 | 21 | 256 | 8.0 | 16.1 | 0.00 | 0.00 | 0.00 | 34 | 1011.2 |
| 20260507102207 | 20 | 235 | 1.6 | 6.4 | 0.00 | 0.00 | 0.00 | 37 | 1011.3 |
| 20260507100207 | 20 | 242 | 14.5 | 16.1 | 0.00 | 0.00 | 0.00 | 37 | 1011.3 |
| 20260507095207 | 20 | 220 | 12.9 | 20.9 | 0.00 | 0.00 | 0.00 | 37 | 1011.2 |
| 20260507094707 | 20 | 270 | 8.0 | 14.5 | 0.00 | 0.00 | 0.00 | 40 | 1011.3 |
| 20260507094207 | 18 | 245 | 11.3 | 17.7 | 0.00 | 0.00 | 0.00 | 41 | 1011.2 |
| 20260507093707 | 18 | 269 | 4.8 | 6.4 | 0.00 | 0.00 | 0.00 | 43 | 1011.2 |
| 20260507093207 | 18 | 251 | 8.0 | 9.7 | 0.00 | 0.00 | 0.00 | 43 | 1011.2 |
| 20260507092707 | 18 | 218 | 14.5 | 16.1 | 0.00 | 0.00 | 0.00 | 40 | 1011.1 |
| 20260507092207 | 19 | 199 | 9.7 | 17.7 | 0.00 | 0.00 | 0.00 | 40 | 1011.2 |
| 20260507090707 | 18 | 233 | 11.3 | 12.9 | 0.00 | 0.00 | 0.00 | 43 | 1011.1 |
| 20260507085207 | 17 | 282 | 6.4 | 9.7 | 0.00 | 0.00 | 0.00 | 47 | 1011.0 |
| 20260507084207 | 17 | 282 | 11.3 | 14.5 | 0.00 | 0.00 | 0.00 | 46 | 1010.9 |
| 20260507083207 | 17 | 243 | 6.4 | 8.0 | 0.00 | 0.00 | 0.00 | 48 | 1010.8 |
| 20260507082707 | 17 | 251 | 8.0 | 11.3 | 0.00 | 0.00 | 0.00 | 46 | 1010.7 |
| 20260507080707 | 16 | 259 | 9.7 | 14.5 | 0.00 | 0.00 | 0.00 | 50 | 1010.6 |
| 20260507040940 | 9 | 287 | 3.2 | 8.0 | 0.00 | 0.00 | 0.00 | 67 | 1008.8 |
| 20260507040443 | 9 | 288 | 3.2 | 3.2 | 0.00 | 0.00 | 0.00 | 67 | 1008.7 |
| 20260507035943 | 8 | 288 | 1.6 | 3.2 | 0.00 | 0.00 | 0.00 | 67 | 1008.8 |
| 20260507035440 | 8 | 288 | 1.6 | 3.2 | 0.00 | 0.00 | 0.00 | 68 | 1008.7 |
| 20260507033440 | 8 | 288 | 0.0 | 0.0 | 0.00 | 0.00 | 0.00 | 64 | 1008.6 |
| 20260507031940 | 8 | 288 | 0.0 | 0.0 | 0.00 | 0.00 | 0.00 | 64 | 1008.5 |
| 20260507025940 | 9 | 288 | 0.0 | 0.0 | 0.00 | 0.00 | 0.00 | 64 | 1008.2 |
| 20260507025440 | 10 | 288 | 1.6 | 3.2 | 0.00 | 0.00 | 0.00 | 64 | 1008.1 |
| 20260507024940 | 10 | 288 | 1.6 | 3.2 | 0.00 | 0.00 | 0.00 | 63 | 1008.0 |
| 20260507024440 | 10 | 288 | 3.2 | 3.2 | 0.00 | 0.00 | 0.00 | 64 | 1008.0 |
| 20260507021942 | 10 | 288 | 3.2 | 6.4 | 0.00 | 0.00 | 0.00 | 65 | 1008.1 |
| 20260507020440 | 10 | 278 | 4.8 | 6.4 | 0.00 | 0.00 | 0.00 | 65 | 1007.9 |
| 20260507015940 | 10 | 278 | 8.0 | 9.7 | 0.00 | 0.00 | 0.00 | 65 | 1007.8 |
| 20260507015440 | 10 | 278 | 4.8 | 12.9 | 0.00 | 0.00 | 0.00 | 65 | 1007.6 |
| 20260507013940 | 10 | 286 | 6.4 | 9.7 | 0.00 | 0.00 | 0.00 | 64 | 1007.4 |
| 20260507013440 | 10 | 290 | 8.0 | 9.7 | 0.00 | 0.00 | 0.00 | 64 | 1007.5 |
| 20260507012440 | 11 | 290 | 6.4 | 9.7 | 0.00 | 0.00 | 0.00 | 64 | 1007.4 |
| 20260507011940 | 11 | 290 | 6.4 | 9.7 | 0.00 | 0.00 | 0.00 | 64 | 1007.4 |
| 20260507011440 | 11 | 291 | 8.0 | 9.7 | 0.00 | 0.00 | 0.00 | 64 | 1007.4 |
| 20260507010940 | 11 | 292 | 9.7 | 11.3 | 0.00 | 0.00 | 0.00 | 64 | 1007.3 |
| 20260507010440 | 11 | 288 | 9.7 | 12.9 | 0.00 | 0.00 | 0.00 | 65 | 1007.2 |
| 20260507005940 | 11 | 289 | 8.0 | 12.9 | 0.00 | 0.00 | 0.00 | 65 | 1007.1 |
| 20260507005440 | 11 | 284 | 9.7 | 14.5 | 0.00 | 0.00 | 0.00 | 65 | 1007.1 |
| 20260507004440 | 11 | 296 | 8.0 | 11.3 | 0.00 | 0.00 | 0.00 | 65 | 1006.9 |
| 20260507003440 | 11 | 304 | 11.3 | 16.1 | 0.00 | 0.00 | 0.00 | 66 | 1006.5 |
| 20260507001940 | 11 | 296 | 9.7 | 16.1 | 0.00 | 0.00 | 0.00 | 64 | 1006.7 |
| 20260507001440 | 11 | 293 | 9.7 | 11.3 | 0.00 | 0.00 | 0.00 | 63 | 1006.8 |
| 20260507000940 | 11 | 288 | 9.7 | 12.9 | 0.00 | 0.00 | 0.00 | 64 | 1006.8 |
| 20260507000442 | 11 | 288 | 9.7 | 12.9 | 0.00 | 0.00 | 0.00 | 64 | 1006.8 |
| 20260506234445 | 11 | 298 | 8.0 | 9.7 | 0.00 | 0.00 | 0.00 | 64 | 1006.6 |
| 20260506230940 | 11 | 330 | 9.7 | 11.3 | 0.00 | 0.00 | 0.00 | 63 | 1005.8 |
| 20260506224440 | 12 | 318 | 9.7 | 14.5 | 0.00 | 0.00 | 0.00 | 63 | 1005.3 |
| 20260506223940 | 12 | 312 | 14.5 | 17.7 | 0.00 | 0.00 | 0.00 | 63 | 1005.3 |
| 20260506223440 | 13 | 300 | 14.5 | 20.9 | 0.00 | 0.00 | 0.00 | 63 | 1005.4 |
| 20260506222940 | 13 | 309 | 20.9 | 24.1 | 0.00 | 0.00 | 0.00 | 62 | 1005.2 |
| 20260506222440 | 13 | 317 | 14.5 | 17.7 | 0.00 | 0.00 | 0.00 | 60 | 1005.0 |
| 20260506220940 | 13 | 257 | 3.2 | 4.8 | 0.00 | 0.00 | 0.00 | 55 | 1004.8 |
| 20260506220440 | 13 | 257 | 6.4 | 14.5 | 0.00 | 0.00 | 0.00 | 57 | 1004.8 |
| 20260506215940 | 13 | 164 | 9.7 | 11.3 | 0.00 | 0.00 | 0.00 | 57 | 1004.8 |
| 20260506215440 | 13 | 163 | 6.4 | 9.7 | 0.00 | 0.00 | 0.00 | 56 | 1004.8 |
| 20260506214940 | 13 | 164 | 11.3 | 16.1 | 0.00 | 0.00 | 0.00 | 57 | 1004.7 |
| 20260506214440 | 13 | 164 | 16.1 | 17.7 | 0.00 | 0.00 | 0.00 | 57 | 1004.7 |
| 20260506212440 | 14 | 136 | 12.9 | 19.3 | 0.00 | 0.00 | 0.00 | 57 | 1004.4 |
| 20260506211940 | 14 | 147 | 12.9 | 14.5 | 0.00 | 0.00 | 0.00 | 56 | 1004.4 |
| 20260506211440 | 14 | 149 | 11.3 | 12.9 | 0.00 | 0.00 | 0.00 | 55 | 1004.3 |
| 20260506210941 | 14 | 133 | 11.3 | 17.7 | 0.00 | 0.00 | 0.00 | 55 | 1004.1 |
| 20260506205940 | 14 | 128 | 16.1 | 17.7 | 0.00 | 0.00 | 0.00 | 56 | 1004.0 |
| 20260506205440 | 15 | 123 | 14.5 | 17.7 | 0.00 | 0.00 | 0.00 | 56 | 1003.9 |
| 20260506204940 | 15 | 126 | 14.5 | 19.3 | 0.00 | 0.00 | 0.00 | 56 | 1003.9 |